Regional Weather Roundup
Issued by NWS

Home | Current Version | Previous Version | Graphics & Text | Print | Product List | Glossary On
Versions: 1 2 3 4 5 6 7 8 9 10 11 12 13 14 15 16 17 18 19 20 21 22 23 24 25 26 27 28 29 30 31 32 33 34 35 36 37 38 39 40 41 42 43 44 45 46 47 48 49 50
000
ASUS43 KTOP 202208
RWRKS

WEATHER ROUNDUP FOR KANSAS
NATIONAL WEATHER SERVICE GOODLAND KS
500 PM CDT FRI OCT 20 2017

NOTE:  "FAIR" INDICATES FEW OR NO CLOUDS BELOW 12,000 FEET WITH NO
SIGNIFICANT WEATHER AND/OR OBSTRUCTIONS TO VISIBILITY.

KSZ001>006-013>018-027>032-041>047-202300-
NORTHWEST KANSAS

CITY           SKY/WX    TMP DP  RH WIND       PRES   REMARKS
GOODLAND       SUNNY     78  45  30 S26G37    29.54F
HAYS           PTSUNNY   77  57  50 S29G37    29.65F
HILL CITY      PTSUNNY   78  55  44 S28G48    29.61S
RUSSELL        PTSUNNY   77  59  53 S29G43    29.66F
$$

KSZ061>065-074>080-084>089-202300-
SOUTHWEST KANSAS

CITY           SKY/WX    TMP DP  RH WIND       PRES   REMARKS
DODGE CITY     SUNNY     76  54  46 S31G44    29.68F
ELKHART          N/A     82  43  25 S16         N/A
GARDEN CITY    SUNNY     79  52  38 S28G36    29.62F
GREAT BEND     MOSUNNY   76  59  55 S35G45    29.66F
LIBERAL        MOSUNNY   80  52  37 S30G36    29.65F
PRATT          SUNNY     76  56  49 S32G39    29.72F
$$

KSZ066>073-081>083-090>101-202300-
SOUTHEAST KANSAS

CITY           SKY/WX    TMP DP  RH WIND       PRES   REMARKS
CHANUTE        SUNNY     75  58  55 S22G30    29.89F
COFFEYVILLE    SUNNY     75  60  59 S20G28    29.90F
HUTCHINSON     MOSUNNY   77  60  55 S25G37    29.75F
MEDICINE LODGE   N/A     76  58  53 S24G39    29.74F
NEWTON         MOSUNNY   74  58  57 S28G37    29.78F
PARSONS        SUNNY     75  58  55 S16G22    29.91F
WICHITA INTL   PTSUNNY   75  59  57 S24G36    29.79F
WICHITA JABRA  CLOUDY    74  59  59 S22G36    29.80F
WICHITA MCCONL PTSUNNY   75  57  52 S23G30    29.81F
WINFIELD       SUNNY     77  58  51 S26G35    29.83F
$$

KSZ007>012-019>026-033>040-048>060-102>105-202300-
NORTHEAST KANSAS

CITY           SKY/WX    TMP DP  RH WIND       PRES   REMARKS
CONCORDIA      MOSUNNY   76  59  55 S20G39    29.70F
EMPORIA        SUNNY     74  58  57 S23G37    29.83F
LAWRENCE       CLOUDY    75  59  57 SE18G31   29.86F
MANHATTAN      PTSUNNY   77  59  53 S25G40    29.77S
MARYSVILLE     MOSUNNY   77  59  53 S21G33    29.75S
OLATHE IND     MOSUNNY   73  58  59 S24G36    29.89F
OLATHE EXE     MOSUNNY   72  58  61 S20G32    29.90F
SALINA         MOSUNNY   79  59  50 S28G39    29.73F
TOPEKA BILLARD MOSUNNY   77  60  55 S26G33    29.83F
TOPEKA FORBES  MOSUNNY   76  59  55 S18G35    29.83F
$$




USA.gov is the U.S. government's official web portal to all federal, state and local government web resources and services.